Regional Weather Roundup
Issued by NWS

Home | Current Version | Previous Version | Graphics & Text | Print | Product List | Glossary On
Versions: 1 2 3 4 5 6 7 8 9 10 11 12 13 14 15 16 17 18 19 20 21 22 23 24 25 26 27 28 29 30 31 32 33 34 35 36 37 38 39 40 41 42 43 44 45 46 47 48 49 50
000
ASUS43 KLOT 171109
RWRIL

ILLINOIS REGIONAL WEATHER ROUNDUP
NATIONAL WEATHER SERVICE CHICAGO/ROMEOVILLE IL
600 AM CDT THU AUG 17 2017

NOTE: "FAIR" INDICATES FEW OR NO CLOUDS BELOW 12,000 FEET WITH NO
SIGNIFICANT WEATHER AND/OR OBSTRUCTIONS TO VISIBILITY.

* THESE STATIONS ARE NOT UNDER NWS QUALITY CONTROL. THEY ALSO MAY NOT
  REPORT WEATHER SUCH AS PRECIPITATION OR FOG.

ILZ001-002-007-009-015-016-024-171200-
NORTHWEST ILLINOIS

CITY           SKY/WX    TMP DP  RH WIND       PRES   REMARKS
MOLINE         CLOUDY    72  68  87 SW7       29.74
STERLING*      MOCLDY    70  69  97 VRB3      29.76
SAVANNA*       CLOUDY    70  69  96 SE6       29.73F
$$

ILZ003-004-008-010-011-017-018-171200-
NORTH CENTRAL ILLINOIS

CITY           SKY/WX    TMP DP  RH WIND       PRES   REMARKS
ROCKFORD       CLOUDY    71  68  90 S8        29.76S
FREEPORT*      CLOUDY    69  68  98 S9        29.76S
ROCHELLE*      CLOUDY    69  68  98 S3        29.77S
DE KALB*       CLOUDY    70  69  97 S10       29.79R
PERU*          CLOUDY    69  67  93 S6        29.78S
$$

ILZ005-006-012>014-019>023-171200-
NORTHEAST ILLINOIS

CITY           SKY/WX    TMP DP  RH WIND       PRES   REMARKS
CHICAGO-OHARE  CLOUDY    75  68  78 SW13      29.77S
CHICAGO-MIDWAY CLOUDY    74  70  87 S12       29.78
AURORA         CLOUDY    72  70  93 S8        29.78
LANSING*       CLOUDY    71  67  87 S10       29.81S
JOLIET*        CLOUDY    73  72  94 S7        29.80R
WAUKEGAN       CLOUDY    72  32  23 SW12      29.76
DUPAGE AIRPORT CLOUDY    72  71  97 S10       29.77
WHEELING       CLOUDY    74  71  91 S15       29.78
MORRIS*        LGT RAIN  72  69  91 S10       29.78S
ROMEOVILLE*    CLOUDY    72  68  86 S10       29.79S
NORTHERLY ISL    N/A     74  68  81 S9          N/A
$$

LMZ740>746-171200-
SOUTHERN LAKE MICHIGAN

STATION/POSITION SKY/WX   TEMP    WIND        PRES    VSBY  WAVE
                          AIR SEA DIR/SP/G                  HT/PER
                          (F)     (DEG/KT/KT) (MB)    (MI)  (FT/S)
SOUTHERN BUOY              74 71  160/ 16/ 16 1007.4          2/ 4
WILMETTE HARBOR            74 73  210/ 14/ 16   N/A           2/ 4
HARRISON CRIB              75     200/ 22/ 25   N/A
CALUMET HARBOR             73     190/ 10/ 12 1008.4F
BURNS HARBOR               73     180/ 11/ 16 1009.8S
MICHIGAN CITY              73     170/ 13/ 15   N/A
MICHIGAN CITY 6N           74 74  190/ 12/ 16   N/A           2/ 3
ST. JOSEPH                 74 74  200/ 14/ 17 1009.0          2/ 3
$$

ILZ025>027-034>036-040-047-049-050-058-095>099-171200-
WEST-CENTRAL ILLINOIS

CITY           SKY/WX    TMP DP  RH WIND       PRES   REMARKS
QUINCY         CLOUDY    69  67  93 SW10      29.83R
GALESBURG*     PTCLDY    68  67  98 SW7       29.79S
MACOMB*        MOCLDY    69  68  96 SW9       29.82R
JACKSONVILLE*  PTCLDY    68  66  93 SW10      29.84R
PITTSFIELD*    CLOUDY    69  66  91 SW6       29.85S
$$

ILZ028>032-037-038-041>044-048-051>054-059>061-171200-
CENTRAL ILLINOIS

CITY           SKY/WX    TMP DP  RH WIND       PRES   REMARKS
PONTIAC        LGT RAIN  72  71  98 CALM      29.82S
BLOOMINGTON    MOCLDY    69  68  96 S8        29.84
DECATUR        CLOUDY    72  69  90 W9        29.87R
PEORIA         MOCLDY    71  70  96 SW8       29.80
LACON*         CLOUDY    72  69  92 SW5       29.78R
LINCOLN*       CLOUDY    71  71 100 S3        29.84R
SPRINGFIELD    PTCLDY    71  69  93 SW7       29.84R
TAYLORVILLE    PTCLDY    69  69  98 SW5       29.87R
$$

ILZ033-039-045-046-055>057-062-063-171200-
EAST-CENTRAL ILLINOIS

CITY           SKY/WX    TMP DP  RH WIND       PRES   REMARKS
CHAMPAIGN      LGT RAIN  71  69  93 CALM      29.85
RANTOUL*       LGT RAIN  72  71  99 CALM      29.84S
MATTOON        MOCLDY    71  71 100 S10       29.82S
PARIS*         MOCLDY    72  71  97 S8        29.85F
$$

ILZ079-100>102-171200-
SOUTHWEST ILLINOIS

CITY           SKY/WX    TMP DP  RH WIND       PRES   REMARKS
ALTON          CLOUDY    67  67 100 W7        29.89R
BELLEVILLE     MOCLDY    70  68  93 W7        29.90R
CAHOKIA*       CLOUDY    70  66  87 CALM      29.89R
SPARTA*        DRIZZLE   70  69  99 W8        29.90R
$$

ILZ064>066-069>071-074>076-080>082-084>086-088>090-092>094-171200-
SOUTH-CENTRAL ILLINOIS

CITY           SKY/WX    TMP DP  RH WIND       PRES   REMARKS
CARBONDALE     LGT RAIN  73  73 100 SE7       29.88F FOG
CAIRO*         CLOUDY    77  74  91 SW12G21   29.93R
EFFINGHAM*     CLOUDY    72  72 100 SE9       29.86R
MARION         TSTM      75  75 100 S7        29.91R
MT. VERNON     CLOUDY    73  72  96 S9        29.87
CENTRALIA*     CLOUDY    72  72  99 S6        29.85R
SALEM*         CLOUDY    73  71  93 S3        29.85S
METROPOLIS*    CLEAR     77  75  93 S9        29.93S
$$

ILZ067-068-072-073-078-083-087-091-171200-
SOUTHEAST ILLINOIS

CITY           SKY/WX    TMP DP  RH WIND       PRES   REMARKS
LAWRENCEVILLE  CLEAR     74  73  97 S8        29.89R FOG
FLORA*         LGT RAIN  74  73  95 S9        29.85F
FAIRFIELD*     CLOUDY    73  73 100 CALM      29.87F FOG
HARRISBURG*    PTCLDY    77  75  94 S8        29.91R
ROBINSON*      MOCLDY    73  72  99 S7        29.89R
CARMI*         CLEAR     75  75  98 S9        29.89S
$$

ABBREVIATIONS USED IN REMARKS
   TC - TEMPERATURE IN CELSIUS
  WCI - WIND CHILL INDEX
   HX - HEAT INDEX
  VSB - VISIBILITY
$$




USA.gov is the U.S. government's official web portal to all federal, state and local government web resources and services.